Hourly Data Report for January 08, 2018

All times are specified in Local Standard Time (LST). Add 1 hour to adjust for Daylight Saving Time where and when it is observed.

OTTAWA INTL A
ONTARIO

45°19'00.000" N
75°40'00.000" W
114.90 m
6106001
71628
YOW

Download Data

Hourly Data (January 2018)
Hourly Data Report for January 8, 2018
Temp Definition
°C
Dew Point Temp Definition
°C
Rel Hum Definition
%
Wind Dir Definition
10's deg

Wind Spd Definition
km/h
Visibility Definition
km
Stn Press Definition
kPa
Hmdx Definition


Wind Chill Definition


Weather Definition


TIME
00:00 -10.1 -11.8 88 15 10 3.2 100.23   -15 Snow
01:00 -9.3 -10.9 89 17 10 1.6 100.17   -14 Snow
02:00 -8.6 -10.0 89 18 12 1.6 100.14   -14 Snow
03:00 -7.5 -9.1 89 18 9 1.6 100.13   -12 Snow
04:00 -7.2 -8.5 90 17 7 3.2 100.09   -11 Snow
05:00 -6.7 -7.9 91 16 7 3.2 100.02   -10 Snow
06:00 -6.1 -7.2 92 14 7 1.6 99.94   -9 Snow
07:00 -8.6 -9.9 90 5 10 6.4 99.86   -14 Snow
08:00 -8.8 -10.2 90 5 12 8.1 99.75   -14 Snow
09:00 -7.8 -9.1 90 9 11 3.2 99.67   -13 Snow
10:00 -4.2 -5.8 89 13 12 8.1 99.56   -9 Snow
11:00 -3.6 -4.7 93 14 8 0.8 99.45   -7 Moderate Snow
12:00 -1.9 -3.0 92 19 15 1.2 99.32   -7 Snow
13:00 -1.7 -3.6 87 20 24 9.7 99.21   -8 Snow
14:00 -1.2 -3.1 87 20 22 3.2 99.14   -7 Snow
15:00 -0.9 -2.2 91 20 19 1.6 99.18   -6 Snow
16:00 -0.4 -1.3 94 21 17 1.6 99.22   -5 Snow
17:00 0.1 -0.9 93 21 17 12.9 99.27     LegendNANA
18:00 0.4 -0.8 91 21 15 12.9 99.33     LegendNANA
19:00 0.7 -1.2 87 22 21 12.9 99.35     Cloudy
20:00 1.0 -1.4 84 24 23 16.1 99.45     LegendNANA
21:00 0.1 -2.8 81 27 12 16.1 99.48     LegendNANA
22:00 -0.2 -2.9 82 24 15 12.9 99.48   -5 Snow
23:00 -0.5 -2.2 88 23 14 16.1 99.47   -5 LegendNANA

Notes on Data Quality.

Legend

  • E = Estimated
  • M = Missing
  • NA = Not Available
Date modified: